DW0354 Weather Reports


Display with metric or nautical units.
time (UTC)temp
F
wind
direction
speed
MPH
gust
MPH
rain 1hr
in
rain 24hr
in
rain mn
in
humidity
%
barometer
mb
20260510033015 75 122 0.0 0.0 0.00 0.01 0.01 71 1011.1
20260510031526 76 122 0.0 0.0 0.00 0.01 0.01 69 1010.9
20260510030018 77 122 0.0 0.0 0.00 0.01 0.01 68 1010.8
20260510024518 77 122 0.0 2.0 0.00 0.01 0.01 67 1010.7
20260510023018 78 80 2.0 6.0 0.00 0.01 0.01 66 1010.6
20260510021532 78 104 2.0 7.0 0.00 0.01 0.01 65 1010.4
20260510020025 79 84 2.0 7.0 0.00 0.01 0.01 63 1010.2
20260510014523 80 94 3.0 6.0 0.00 0.01 0.01 60 1009.9
20260510013018 82 112 3.0 4.0 0.00 0.01 0.01 57 1009.7
20260510011520 83 91 3.0 9.0 0.00 0.01 0.01 56 1009.5
20260510010023 85 93 1.0 4.0 0.00 0.01 0.01 56 1009.2
20260510004521 87 87 2.0 6.0 0.00 0.01 0.01 52 1009.0
20260510003023 88 150 0.0 7.0 0.00 0.01 0.01 45 1008.9
20260510001535 89 120 4.0 7.0 0.00 0.01 0.01 42 1008.8
20260510000024 89 120 1.0 7.0 0.00 0.01 0.01 44 1008.6
20260509234522 90 134 3.0 10.0 0.00 0.01 0.01 43 1008.5
20260509231508 93 100 4.0 11.0 0.00 0.01 0.01 43 1008.3
20260509230011 93 99 1.0 3.0 0.00 0.01 0.01 42 1008.5
20260509223021 94 73 0.0 4.0 0.00 0.01 0.01 42 1008.4
20260509221526 93 343 1.0 5.0 0.00 0.01 0.01 38 1008.4
20260509220009 93 277 3.0 7.0 0.00 0.01 0.01 38 1008.5
20260509211526 93 308 2.0 9.0 0.00 0.01 0.01 44 1008.8
20260509210026 93 149 1.0 6.0 0.00 0.01 0.01 47 1009.0
20260509203017 91 200 2.0 8.0 0.00 0.01 0.01 50 1009.4
20260509200022 89 213 0.0 7.0 0.00 0.01 0.01 49 1009.7
20260509194533 90 166 4.0 6.0 0.00 0.01 0.01 52 1010.0
20260509193023 90 145 2.0 6.0 0.00 0.01 0.01 51 1010.4
20260509184528 88 233 3.0 6.0 0.00 0.01 0.01 58 1010.8
20260509180024 87 194 2.0 8.0 0.00 0.01 0.01 62 1011.2
20260509174507 85 211 2.0 6.0 0.00 0.01 0.01 66 1011.3
20260509171516 83 148 1.0 4.0 0.00 0.01 0.01 69 1011.6
20260509170023 81 351 0.0 4.0 0.00 0.01 0.01 72 1011.6
20260509163018 80 268 1.0 4.0 0.00 0.01 0.01 77 1012.0
20260509160022 76 226 2.0 4.0 0.00 0.01 0.01 88 1012.4
20260509151513 73 204 3.0 7.0 0.00 0.01 0.01 94 1011.9
20260509144524 71 117 0.0 0.0 0.00 0.01 0.01 94 1012.4
20260509143026 71 339 0.0 2.0 0.00 0.01 0.01 94 1012.2
20260509134518 71 350 0.0 3.0 0.00 0.01 0.01 94 1011.6
20260509133026 71 33 1.0 3.0 0.00 0.01 0.01 94 1011.6
20260509131534 71 73 0.0 0.0 0.00 0.01 0.01 94 1011.7
20260509130029 71 28 0.0 2.0 0.00 0.01 0.01 94 1011.7
20260509124526 71 337 0.0 2.0 0.00 0.01 0.01 94 1011.8
20260509121536 70 9 1.0 6.0 0.00 0.01 0.01 94 1011.8
20260509120033 71 9 3.0 8.0 0.00 0.01 0.01 94 1011.5
20260509114516 71 50 1.0 4.0 0.00 0.01 0.01 94 1011.5
20260509113019 71 36 1.0 4.0 0.00 0.01 0.01 94 1012.0
20260509111524 71 350 2.0 4.0 0.01 0.01 0.01 94 1011.9
20260509110009 71 24 0.0 0.0 0.01 0.01 0.01 94 1011.5
20260509100031 71 9 0.0 0.0 0.00 0.00 0.00 93 1010.8
20260509094514 71 9 1.0 4.0 0.00 0.00 0.00 93 1010.8
20260509093016 71 5 1.0 3.0 0.00 0.00 0.00 93 1010.3
20260509091523 71 75 0.0 0.0 0.00 0.00 0.00 93 1010.3
20260509090026 71 105 0.0 0.0 0.00 0.00 0.00 93 1010.2
20260509084515 71 105 0.0 0.0 0.00 0.00 0.00 93 1010.6
20260509083014 71 105 0.0 0.0 0.00 0.00 0.00 93 1010.6
20260509081522 71 105 0.0 2.0 0.00 0.00 0.00 93 1010.8
20260509074526 71 110 0.0 0.0 0.00 0.00 0.00 93 1010.1
20260509073014 71 146 0.0 0.0 0.00 0.00 0.00 93 1010.3
20260509071517 71 192 0.0 5.0 0.00 0.00 0.00 93 1010.3
20260509070023 71 188 0.0 0.0 0.00 0.00 0.00 93 1010.6
20260509063027 71 171 0.0 3.0 0.00 0.00 0.00 93 1010.7
20260509061533 70 164 0.0 2.0 0.00 0.00 0.00 92 1010.7
20260509060021 70 187 1.0 4.0 0.00 0.00 0.00 92 1010.8
20260509054526 70 194 1.0 3.0 0.00 0.00 0.00 92 1011.2
20260509053027 70 130 0.0 3.0 0.00 0.00 0.00 92 1011.1
20260509051526 69 144 0.0 2.0 0.00 0.00 0.00 92 1011.4
20260509050018 69 190 0.0 3.0 0.00 0.00 0.00 92 1011.5
20260509044521 68 145 0.0 0.0 0.00 0.00 0.00 91 1011.3
20260509043025 68 145 0.0 0.0 0.00 0.00 0.00 91 1011.0
20260509041535 68 148 0.0 0.0 0.00 0.00 0.00 90 1010.7
20260509040017 68 106 0.0 0.0 0.00 0.00 0.00 89 1010.2
20260509034521 68 106 0.0 0.0 0.00 0.00 0.00 88 1010.3